Regional Weather Roundup
Issued by NWS Upton, NY

Current Version | Previous Version | Text Only | Print | Product List | Glossary Off
Versions: 1 2 3 4 5 6 7 8 9 10 11 12 13 14 15 16 17 18 19 20 21 22 23 24 25 26 27 28 29 30 31 32 33 34 35 36 37 38 39 40 41 42 43 44 45 46 47 48 49 50
000 ASUS41 KOKX 190605 RWROKX REGIONAL WEATHER ROUNDUP NATIONAL WEATHER SERVICE NEW YORK NY 200 AM EDT FRI SEP 19 2014 NOTE: "FAIR" INDICATES FEW OR NO CLOUDS BELOW 12,000 FEET WITH NO SIGNIFICANT WEATHER AND/OR OBSTRUCTIONS TO VISIBILITY. NYZ071-072-176-178-NJZ106-104-190700- NEW YORK CITY METRO AREA CITY SKY/WX TMP DP RH WIND PRES REMARKS CENTRAL PARK CLEAR 61 48 62 NE6 30.18R LAGUARDIA APRT CLEAR 62 50 64 NE10 30.14R KENNEDY INTL PTCLDY 62 51 67 N12 30.14R NEWARK/LIBERTY PTCLDY 60 50 69 N12 30.15R BRNX BOT. GARD N/A 59 48 67 NE1 30.17R TETERBORO CLEAR 60 49 66 N3 30.15R $$ NYZ177-179-078>081-190700- LONG ISLAND NEW YORK CITY SKY/WX TMP DP RH WIND PRES REMARKS FARMINGDALE CLEAR 60 51 72 NE8 30.14R ISLIP CLEAR 58 52 80 N7 30.12R SHIRLEY MOCLDY 59 52 77 N8 30.14R WESTHAMPTON CLEAR 61 52 72 N9 30.14R MONTAUK POINT N/A 62 52 69 N12G20 30.15R $$ NYZ052-065-067-190700- HUDSON VALLEY CITY SKY/WX TMP DP RH WIND PRES REMARKS WHITE PLAINS PTCLDY 57 49 74 VRB3 30.15R NEWBURGH MOCLDY 52 48 87 N7 30.20 MONTGOMERY CLEAR 51 46 83 NE5 30.19R POUGHKEEPSIE PTCLDY 52 45 77 N8 30.19R ALBANY PTCLDY 47 36 65 N8 30.25R $$ NJZ001-105-106-008-010-013-015-019>022-104-190700- NEW JERSEY CITY SKY/WX TMP DP RH WIND PRES REMARKS NEWARK/LIBERTY PTCLDY 60 50 69 N12 30.15R TETERBORO CLEAR 60 49 66 N3 30.15R CALDWELL CLEAR 54 48 80 NE3 30.17R MORRISTOWN FOG 50 46 87 CALM 30.16R VSB 1 SOMERVILLE CLEAR 51 48 89 CALM 30.14R LINDEN FAIR 65 52 62 NE9 30.16R SUSSEX PTCLDY 51 47 86 CALM 30.19R ANDOVER N/A 50 49 96 CALM 30.18R TRENTON CLEAR 57 48 72 N8 30.14R MILLVILLE CLEAR 54 53 97 CALM 30.11R ATLANTIC CITY CLEAR 56 53 90 W3 30.11R WRIGHTSTOWN CLEAR 55 51 86 N6 30.11R TOMS RIVER CLEAR 52 48 87 CALM 30.12R BELMAR CLEAR 61 50 67 N8 30.12R $$ PAZ047>061-062-071-190700- EASTERN PENNSYLVANIA CITY SKY/WX TMP DP RH WIND PRES REMARKS PHILADELPHIA PTCLDY 62 49 62 N14 30.13R ALLENTOWN CLEAR 54 47 77 CALM 30.17R SCRANTON CLEAR 52 46 80 N6 30.20R $$ CTZ002-004>006-009-010-012-RIZ004-006-007-MAZ004-011-015-190700- SOUTHERN NEW ENGLAND IN CT CITY SKY/WX TMP DP RH WIND PRES REMARKS BRADLEY INTL PTCLDY 52 41 66 N9 30.19R HARTFORD CLOUDY 54 45 71 N12 30.19R DANBURY MOCLDY 55 50 83 CALM 30.17R WTRBRY/OXFORD CLOUDY 54 45 71 NE12 30.18R BRIDGEPORT CLOUDY 60 50 69 NE13 30.16R MERIDEN MOCLDY 56 46 69 N8G17 30.18R NEW HAVEN CLOUDY 60 48 64 N14 30.16R CHESTER CLOUDY 55 48 76 N7 30.17R GROTON MOCLDY 55 49 80 N15 30.14R WILLIMANTIC MOCLDY 53 48 83 N5 30.18R IN RI CITY SKY/WX TMP DP RH WIND PRES REMARKS PROVIDENCE CLEAR 55 42 61 N13 30.18R BLOCK ISLAND CLEAR 61 50 67 NE15G22 30.13R WESTERLY CLOUDY 57 48 72 N9 30.15R IN MA CITY SKY/WX TMP DP RH WIND PRES REMARKS BOSTON MOCLDY 53 40 61 N9 30.20R WORCESTER CLEAR 46 38 73 N9 30.19R WESTFIELD PTCLDY 49 40 71 N3 30.21R PROVINCETOWN MOCLDY 57 43 58 N17G23 30.16R NANTUCKET CLOUDY 60 49 66 N22G28 30.11R $$ ANZ330-335-338-340-345-350-353-355-190700- COASTAL MARINE OBSERVATIONS STATION/POSITION TIME SKY/WX TEMP WIND PRES VSBY WAVE AIR SEA DIR/SP/G HT/PER (UTC) (F) (DEG/KT/KT) (MB) (MI) (FT/S) NY HARB ENTRANCE 0600 66 70 30/ 21/ 25 1019.5 3/11 4S FIRE IS 0600 71 N/A 2/11 23SW MTP 0600 N/A 3/11 HUDSON CANYON 0600 69 72 330/ 6/ 8 1019.0 3/10 EXECUTION ROCKS 0600 63 71 20/ 14/ 17 N/A WESTERN LI SOUND 0600 63 10/ 8/ 10 N/A 1 CENTRAL LI SOUND 0500 62 71 10/ 16/ 19 N/A 2/ 3 EASTERN LI SOUND 0500 60 67 20/ 17/ 21 N/A ROBBINS REEF 0600 64 30/ 18/ 22 1019.1 $$ >>>>>>>>>>>>>>>>>>>>>>>>>>>> KEY <<<<<<<<<<<<<<<<<<<<<<<<<<< > < > SKY/WX - SKY CONDITION/PRESENT WEATHER < > TMP - TEMPERATURE IN FAHRENHEIT < > DP - DEWPOINT IN FAHRENHEIT < > RH - RELATIVE HUMIDITY IN PERCENT < > WIND - DIRECTION AND SPEED IN MPH < > PRES - MEAN SEA LEVEL PRESSURE IN INCHES OF HG < > WCI - WIND CHILL INDEX < > VSB - VISIBILITY IN MILES < > HX - HEAT INDEX < > TC - TEMPERATURE IN CELSIUS < > VRB - VARIABLE WIND DIRECTION < > < >>>>>>>>>>>>>>>>>>>>>>>>>>>> KEY <<<<<<<<<<<<<<<<<<<<<<<<<<<

USA.gov is the U.S. government's official web portal to all federal, state and local government web resources and services.